Location: Unspecified
(49.9820°N, 20.4363°E)
Time: 06:21:35
(UTC+02:00)

Transit 2A - Visible Passes

Search period start: 14 May 2026 00:00
Search period end: 24 May 2026 00:00
Orbit: 594 x 950 km, 66.7° (Epoch: 13 May)

Date Brightness Start Highest point End Pass type
(mag) Time Alt. Az. Time Alt. Az. Time Alt. Az.
14 May 5.9 01:36:19 10° NW 01:41:13 54° WSW 01:42:08 46° SSW visible
14 May 8.6 21:33:35 10° NNW 21:36:13 13° N 21:38:47 10° NE visible
14 May 7.8 23:16:53 10° NNW 23:21:12 25° NNE 23:25:11 10° E visible
15 May 5.6 00:59:47 10° NW 01:04:52 80° WSW 01:06:09 48° SSE visible
15 May 7.8 02:45:04 10° W 02:46:26 12° W 02:46:26 12° W visible
15 May 8.6 20:56:45 10° NNW 20:59:18 13° N 21:01:44 10° NNE visible
15 May 8.1 22:40:30 10° NNW 22:44:25 21° NNE 22:48:05 10° ENE visible
16 May 5.9 00:23:19 10° NW 00:28:26 72° NE 00:30:14 37° SE visible
16 May 7.3 02:07:27 10° WNW 02:10:31 18° WSW 02:10:31 18° WSW visible
16 May 8.3 22:04:06 10° NNW 22:07:36 17° NNE 22:10:54 10° ENE visible
16 May 6.4 23:46:54 10° NNW 23:51:55 51° NE 23:54:22 26° ESE visible
17 May 6.8 01:30:28 10° NW 01:34:37 27° WSW 01:34:40 27° WSW visible
17 May 8.3 21:27:40 10° NNW 21:30:44 15° NNE 21:33:40 10° NE visible
17 May 7.0 23:10:32 10° NNW 23:15:19 38° NE 23:18:32 17° ESE visible
18 May 6.2 00:53:45 10° NW 00:58:23 41° WSW 00:58:51 40° SW visible
18 May 7.4 22:34:09 10° NNW 22:38:39 29° NE 22:42:46 10° E visible
19 May 5.8 00:17:09 10° NW 00:22:05 61° WSW 00:23:05 49° S visible
19 May 7.8 21:57:48 10° NNW 22:01:56 23° NNE 22:05:45 10° E visible
19 May 5.7 23:40:39 10° NW 23:45:42 89° WSW 23:47:21 41° SE visible
20 May 7.7 01:25:26 10° WNW 01:27:39 14° WSW 01:27:39 14° WSW visible
20 May 8.0 21:21:26 10° NNW 21:25:09 19° NNE 21:28:37 10° ENE visible
20 May 6.0 23:04:13 10° NNW 23:09:14 64° NE 23:11:39 27° ESE visible
21 May 7.2 00:48:07 10° WNW 00:51:42 21° WSW 00:51:58 21° WSW visible
21 May 6.5 22:27:49 10° NNW 22:32:42 45° NE 22:35:59 17° ESE visible
22 May 6.7 00:11:14 10° NW 00:15:31 31° WSW 00:16:18 29° SW visible
22 May 7.0 21:51:26 10° NNW 21:56:05 34° NE 22:00:19 10° ESE visible
22 May 6.2 23:34:33 10° NW 23:39:16 46° WSW 23:40:40 35° SSW visible
23 May 7.4 21:15:05 10° NNW 21:19:24 26° NNE 21:23:22 10° E visible
23 May 5.7 22:58:00 10° NW 23:02:56 70° WSW 23:05:04 31° SSE visible
